Sitka, Alaska, United States (99835)
Lat: 57.05N, Lon: 135.33W
Wx Zone: AKZ023
Local Info
Past Weather Observations for Sunday, September 14, 2014

NOTE: This archive is for the closest National Weather Service station to Sitka. Information may differ from the station used for current weather conditions.

Click here for Long-term Archive

Time Weather Temperature Dewpoint Humidity Pressure Winds Precip Visibility
23:53
Overcast
54°F / 12°C 54°F / 12°C 100% 29.95 in
(1014 mb)
SW 5.8 mph
(SW 9 kph)
0.00 in
(0.00 mm)
8SM
23:05
Overcast
Light Rain
54°F / 12°C 54°F / 12°C 100% 29.95 in
(1014 mb)
SW 6.9 mph
(SW 11 kph)
0.00 in
(0.00 mm)
6SM
22:53
Overcast
Light Rain
54°F / 12°C 54°F / 12°C 100% 29.95 in
(1014 mb)
SW 6.9 mph
(SW 11 kph)
0.00 in
(0.00 mm)
3SM
22:49
Overcast
Light Rain
54°F / 12°C 54°F / 12°C 100% 29.95 in
(1014 mb)
SW 5.8 mph
(SW 9 kph)
0.00 in
(0.00 mm)
2 1/2SM
22:19
Overcast
Light Rain
55°F / 13°C 54°F / 12°C 94% 29.95 in
(1014 mb)
S 4.6 mph
(S 7 kph)
0.00 in
(0.00 mm)
6SM
21:53
Overcast
55°F / 13°C 54°F / 12°C 94% 29.95 in
(1014 mb)
S 5.8 mph
(S 9 kph)
- 8SM
20:53
Overcast
55°F / 13°C 54°F / 12°C 94% 29.95 in
(1014 mb)
SW 3.5 mph
(SW 6 kph)
- 10SM
20:14
Overcast
55°F / 13°C 54°F / 12°C 94% 29.95 in
(1014 mb)
Calm - 10SM
19:53
Overcast
55°F / 13°C 54°F / 12°C 94% 29.95 in
(1014 mb)
SW 3.5 mph
(SW 6 kph)
- 10SM
18:53
Overcast
55°F / 13°C 54°F / 12°C 94% 29.95 in
(1014 mb)
E 3.5 mph
(E 6 kph)
- 10SM
18:38
Overcast
55°F / 13°C 54°F / 12°C 94% 29.95 in
(1014 mb)
E 5.8 mph
(E 9 kph)
- 10SM
17:53
Overcast
55°F / 13°C 52°F / 11°C 88% 29.98 in
(1015 mb)
Calm - 10SM
17:00
Overcast
55°F / 13°C 54°F / 12°C 94% 29.98 in
(1015 mb)
W 8.1 mph
(W 13 kph)
- 10SM
16:53
Mostly Cloudy
55°F / 13°C 54°F / 12°C 94% 29.98 in
(1015 mb)
W 6.9 mph
(W 11 kph)
- 10SM
16:40
Mostly Cloudy
55°F / 13°C 54°F / 12°C 94% 29.98 in
(1015 mb)
NW 4.6 mph
(NW 7 kph)
- 10SM
15:53
Mostly Cloudy
57°F / 14°C 54°F / 12°C 88% 29.98 in
(1015 mb)
S 4.6 mph
(S 7 kph)
- 10SM
15:27
Mostly Cloudy
57°F / 14°C 54°F / 12°C 88% 29.98 in
(1015 mb)
Calm - 10SM
14:53
Mostly Cloudy
57°F / 14°C 54°F / 12°C 88% 30.01 in
(1016 mb)
Calm - 10SM
13:53
Overcast
55°F / 13°C 52°F / 11°C 88% 30.04 in
(1017 mb)
W 3.5 mph
(W 6 kph)
- 10SM
12:53
Overcast
57°F / 14°C 52°F / 11°C 82% 30.04 in
(1017 mb)
SW 3.5 mph
(SW 6 kph)
- 10SM
11:53
Overcast
55°F / 13°C 52°F / 11°C 88% 30.04 in
(1017 mb)
Calm - 10SM
10:53
Overcast
55°F / 13°C 52°F / 11°C 88% 30.04 in
(1017 mb)
Calm - 10SM
09:53
Overcast
55°F / 13°C 52°F / 11°C 88% 30.04 in
(1017 mb)
Calm - 10SM
08:53
Overcast
54°F / 12°C 52°F / 11°C 94% 30.04 in
(1017 mb)
Calm - 10SM
08:40
Overcast
55°F / 13°C 52°F / 11°C 88% 30.04 in
(1017 mb)
Calm - 10SM
07:53
Overcast
54°F / 12°C 52°F / 11°C 94% 30.04 in
(1017 mb)
ESE 4.6 mph
(ESE 7 kph)
- 9SM
06:53
Overcast
54°F / 12°C 52°F / 11°C 94% 30.04 in
(1017 mb)
E 5.8 mph
(E 9 kph)
- 10SM
05:53
Overcast
54°F / 12°C 52°F / 11°C 94% 30.04 in
(1017 mb)
ESE 6.9 mph
(ESE 11 kph)
- 8SM
04:53
Overcast
54°F / 12°C 54°F / 12°C 100% 30.04 in
(1017 mb)
ESE 3.5 mph
(ESE 6 kph)
- 10SM
04:51
Overcast
54°F / 12°C 54°F / 12°C 100% 30.04 in
(1017 mb)
E 3.5 mph
(E 6 kph)
- 10SM
03:53
Overcast
54°F / 12°C 52°F / 11°C 94% 30.06 in
(1018 mb)
E 3.5 mph
(E 6 kph)
- 10SM
03:12
Overcast
54°F / 12°C 52°F / 11°C 94% 30.04 in
(1017 mb)
E 4.6 mph
(E 7 kph)
- 10SM
02:53
Overcast
54°F / 12°C 52°F / 11°C 94% 30.04 in
(1017 mb)
Calm - 10SM
01:53
Overcast
54°F / 12°C 52°F / 11°C 94% 30.04 in
(1017 mb)
E 5.8 mph
(E 9 kph)
- 10SM
00:53
Overcast
55°F / 13°C 54°F / 12°C 94% 30.06 in
(1018 mb)
Calm - 10SM
00:45
Overcast
55°F / 13°C 54°F / 12°C 94% 30.06 in
(1018 mb)
SE 3.5 mph
(SE 6 kph)
- 10SM
Time Weather Temperature Dewpoint Humidity Pressure Winds Precip Visibility


Weather for websites

WeatherForYou.com, LLC is not responsible for any damages or problems caused by this service. Current weather conditions are obtained from the closest station including government and personal stations which may have varying degrees of accuracy. Weather forecasts are derived from the NOAA NDFD. Like all things, this site belongs to Jesus Christ... He just trusts me to maintain it. If you have any questions or comments email webmaster@weatherforyou.com

Copyright © 2014, WeatherForYou.com LLC. All rights reserved.